Weather in Bollnas

Sweden     61˚20′50″N   16˚23′43″E
temp.,
°C
wind,
m/s
gust,
m/s
humid.,
%
clouds,
%
prec.,
mm/h
press.,
hPa
HPBL,
m
15 january, fri
fri1501:00−16˚wnw229381 0.0 102655
04:00−15˚wnw229495 0.0 102679
07:00−15˚wnw229284 0.0 102536
10:00−14˚wnw229084 0.0 102655
13:00−10˚wnw238474 0.0 1025125
16:00−11˚wnw238740 0.0 102547
19:00−11˚wnw238723 0.0 102454
22:00−11˚wnw239038 0.0 102462
16 january, sat
sat1601:00−10˚wnw229219 0.0 102445
04:00−11˚wnw229310 0.0 102342
07:00−11˚wnw22925 0.0 102328
10:00−11˚wnw12920 0.0 102324
13:00−8˚wnw11900 0.0 102254
16:00−10˚wnw119129 0.0 102121
19:00−10˚wnw119227 0.0 102121
22:00−10˚w119470 0.0 102021
17 january, sun
sun1701:00−10˚w119546 0.0 101921
04:00−10˚sw119590 0.0 101821
07:00−10˚wsw129493 0.0 101722
10:00−9˚wsw1293100 0.0 101759
13:00−7˚wsw289199 0.0 1016344
16:00−7˚sw399182 0.0 1015248
19:00−6˚sw3118991 0.0 1015471
22:00−6˚sw31190100 0.0 1014521
18 january, mon
mon1801:00−5˚sw31289100 0.0 1013646
04:00−6˚w31191100 0.0 1012408
07:00−6˚wsw31091100 0.0 1011309
10:00−6˚wsw2992100 0.0 1011292
13:00−4˚wsw3109096 0.0 1010513
16:00−5˚wsw289172 0.0 1010217
19:00−6˚sw139651 0.0 100995
22:00−4˚ssw259471 0.0 1008134
19 january, tue
tue1901:00−5˚s259852 0.0 1007211
04:00−3˚sse2795100 0.0 1005358
07:00−6˚sse259799 0.1 1004144
10:00−4˚s259683 0.0 1004164
13:00−2˚sw289191 0.0 1003423
16:00−2˚ssw129295 0.0 100347
19:00−1˚ssw389384 0.0 1002405
22:00−1˚s2793100 0.0 1002334